Weather History for KLXN - October, 2012

Change the Weather History Date:

Tuesday, October 2, 2012

  Actual Average Record
Temperature  
Mean Temperature 54 °F -  
Max Temperature 78 °F 67 °F 89 °F (1997)
Min Temperature 31 °F 41 °F 28 °F (1999)
Degree Days  
Heating Degree Days 10    
Growing Degree Days 4 (Base 50)    
Moisture  
Dew Point 31 °F    
Average Humidity 50    
Maximum Humidity 92    
Minimum Humidity 16    
Precipitation  
Precipitation 0.00 in - - ()
Sea Level Pressure  
Sea Level Pressure 29.96 in    
Wind  
Wind Speed 7 mph (SSW)    
Max Wind Speed 16 mph    
Max Gust Speed 21 mph    
Visibility 10 miles    
Events      
Averages and records for this station are not official NWS values.
T = Trace of Precipitation, MM = Missing Value Source: NWS Daily Summary

Daily Weather History Graph

Daily Weather History Graph

Search for Another Location

Airport or City:

Trip Planner

Search our weather history database for the weather conditions in past years. The results will help you decide how hot, cold, wet, or windy it might be!

Date:

Astronomy

Oct. 02, 2012 Rise Set
Actual Time 7:37 AM CDT 7:18 PM CDT
Civil Twilight 7:09 AM CDT 7:45 PM CDT
Nautical Twilight 6:38 AM CDT 8:17 PM CDT
Astronomical Twilight 6:06 AM CDT 8:49 PM CDT
Moon 8:31 PM CDT (10/2) 10:07 AM CDT (10/2)
Length of Visible Light 12h 36m
Length of Day
11h 41m
Waning Gibbous, 94% of the Moon is Illuminated
Oct 2
Waning Gibbous
Oct 8
Last Quarter
Oct 15
New
Oct 21
First Quarter
Oct 29
Full

Hourly Weather History & Observations

Time (CDT) Temp. Windchill Dew Point Humidity Pressure Visibility Wind Dir Wind Speed Gust Speed Precip Events Conditions
12:15 AM 37.8 °F 34.2 °F 31.5 °F 78% 30.11 in 10.0 mi West 4.6 mph - N/A   Clear
12:35 AM 36.7 °F 32.9 °F 30.7 °F 79% 30.10 in 10.0 mi WNW 4.6 mph - N/A   Clear
12:55 AM 37.9 °F 34.4 °F 32.2 °F 80% 30.10 in 10.0 mi NW 4.6 mph - N/A   Clear
1:35 AM 35.6 °F 32.8 °F 31.5 °F 85% 30.10 in 10.0 mi WNW 3.5 mph - N/A   Clear
2:15 AM 36.1 °F 31.4 °F 31.6 °F 84% 30.09 in 10.0 mi WNW 5.8 mph - N/A   Clear
2:35 AM 35.1 °F 30.1 °F 30.9 °F 85% 30.08 in 10.0 mi WNW 5.8 mph - N/A   Clear
3:15 AM 33.8 °F 30.8 °F 30.2 °F 87% 30.07 in 10.0 mi West 3.5 mph - N/A   Clear
3:35 AM 33.8 °F - 30.4 °F 87% 30.06 in 10.0 mi Calm Calm - N/A   Clear
3:55 AM 34.3 °F 31.4 °F 31.1 °F 88% 30.05 in 10.0 mi WNW 3.5 mph - N/A   Clear
4:15 AM 32.7 °F 29.6 °F 29.7 °F 88% 30.05 in 10.0 mi WNW 3.5 mph - N/A   Clear
4:35 AM 32.7 °F 26.4 °F 30.2 °F 90% 30.06 in 10.0 mi WNW 6.9 mph - N/A   Clear
4:55 AM 34.3 °F 29.2 °F 31.1 °F 88% 30.06 in 10.0 mi WNW 5.8 mph - N/A   Clear
5:15 AM 33.1 °F 28.7 °F 30.4 °F 90% 30.06 in 10.0 mi NW 4.6 mph - N/A   Clear
5:35 AM 32.9 °F 28.5 °F 30.2 °F 90% 30.06 in 10.0 mi NW 4.6 mph - N/A   Clear
5:55 AM 32.2 °F 27.7 °F 30.0 °F 92% 30.06 in 10.0 mi NW 4.6 mph - N/A   Clear
6:15 AM 32.0 °F 27.5 °F 29.1 °F 89% 30.06 in 10.0 mi NW 4.6 mph - N/A   Clear
6:35 AM 32.2 °F 28.9 °F 30.0 °F 92% 30.06 in 10.0 mi West 3.5 mph - N/A   Clear
6:55 AM 32.0 °F 27.5 °F 29.5 °F 90% 30.06 in 10.0 mi WNW 4.6 mph - N/A   Clear
7:15 AM 31.3 °F 26.6 °F 28.4 °F 89% 30.05 in 10.0 mi WNW 4.6 mph - N/A   Clear
7:35 AM 32.0 °F - 29.1 °F 89% 30.05 in 10.0 mi Calm Calm - N/A   Clear
7:55 AM 32.0 °F - 29.1 °F 89% 30.04 in 10.0 mi Calm Calm - N/A   Clear
8:15 AM 32.0 °F 28.7 °F 28.9 °F 88% 30.04 in 7.0 mi West 3.5 mph - N/A   Clear
8:35 AM 35.6 °F - 32.0 °F 87% 30.04 in 7.0 mi Calm Calm - N/A   Clear
8:55 AM 39.4 °F - 32.9 °F 78% 30.04 in 7.0 mi Calm Calm - N/A   Clear
9:15 AM 43.0 °F - 34.7 °F 73% 30.04 in 7.0 mi Calm Calm - N/A   Clear
9:35 AM 47.7 °F - 34.9 °F 61% 30.03 in 10.0 mi Calm Calm - N/A   Clear
9:55 AM 51.3 °F - 36.0 °F 56% 30.03 in 10.0 mi Calm Calm - N/A   Clear
10:15 AM 55.6 °F - 36.3 °F 48% 30.01 in 10.0 mi South 4.6 mph - N/A   Clear
10:35 AM 61.0 °F - 32.2 °F 34% 30.01 in 10.0 mi SSW 13.8 mph - N/A   Clear
10:55 AM 62.2 °F - 31.6 °F 32% 30.01 in 10.0 mi SW 12.7 mph - N/A   Clear
11:15 AM 63.3 °F - 32.2 °F 31% 30.00 in 10.0 mi SW 15.0 mph - N/A   Clear
11:35 AM 64.8 °F - 31.8 °F 29% 29.99 in 10.0 mi SW 11.5 mph 20.7 mph N/A   Clear
11:55 AM 66.2 °F - 32.0 °F 28% 29.99 in 10.0 mi SW 15.0 mph - N/A   Clear
12:15 PM 66.9 °F - 32.0 °F 27% 29.97 in 10.0 mi SSW 16.1 mph - N/A   Clear
12:35 PM 68.4 °F - 32.2 °F 26% 29.97 in 10.0 mi SW 9.2 mph - N/A   Clear
12:55 PM 68.9 °F - 32.2 °F 26% 29.95 in 10.0 mi SSW 15.0 mph - N/A   Clear
1:15 PM 69.8 °F - 32.5 °F 25% 29.94 in 10.0 mi SW 12.7 mph 18.4 mph N/A   Clear
1:35 PM 71.2 °F - 32.2 °F 24% 29.92 in 10.0 mi SSW 11.5 mph 17.3 mph N/A   Clear
1:55 PM 72.7 °F - 30.9 °F 21% 29.91 in 10.0 mi SSW 11.5 mph 17.3 mph N/A   Clear
2:15 PM 72.7 °F - 30.4 °F 21% 29.90 in 10.0 mi South 12.7 mph 18.4 mph N/A   Clear
2:35 PM 74.1 °F - 30.6 °F 20% 29.89 in 10.0 mi South 12.7 mph 17.3 mph N/A   Clear
2:55 PM 75.4 °F - 28.8 °F 18% 29.88 in 10.0 mi SSW 10.4 mph 18.4 mph N/A   Clear
3:15 PM 76.1 °F - 28.6 °F 17% 29.87 in 10.0 mi SSW 13.8 mph 20.7 mph N/A   Clear
3:35 PM 77.0 °F - 27.5 °F 16% 29.86 in 10.0 mi SSW 13.8 mph 20.7 mph N/A   Clear
3:55 PM 77.0 °F - 27.1 °F 16% 29.85 in 10.0 mi SSW 15.0 mph 20.7 mph N/A   Clear
4:15 PM 77.5 °F - 27.9 °F 16% 29.85 in 10.0 mi SSW 13.8 mph 17.3 mph N/A   Clear
4:35 PM 78.1 °F - 27.9 °F 16% 29.84 in 10.0 mi South 12.7 mph - N/A   Clear
4:55 PM 77.9 °F - 28.4 °F 16% 29.84 in 10.0 mi South 12.7 mph 18.4 mph N/A   Clear
5:15 PM 77.7 °F - 28.4 °F 16% 29.83 in 10.0 mi South 13.8 mph 20.7 mph N/A   Clear
5:35 PM 77.0 °F - 29.3 °F 17% 29.83 in 10.0 mi South 11.5 mph - N/A   Clear
5:55 PM 77.0 °F - 28.8 °F 17% 29.83 in 10.0 mi SSE 12.7 mph - N/A   Clear
6:15 PM 76.3 °F - 29.3 °F 18% 29.83 in 10.0 mi South 11.5 mph - N/A   Clear
6:35 PM 74.5 °F - 29.7 °F 19% 29.83 in 10.0 mi SSE 10.4 mph - N/A   Clear
7:15 PM 67.6 °F - 30.9 °F 25% 29.83 in 10.0 mi SSE 8.1 mph - N/A   Clear
7:35 PM 65.7 °F - 30.6 °F 27% 29.83 in 10.0 mi SSE 8.1 mph - N/A   Clear
7:55 PM 64.2 °F - 30.7 °F 29% 29.83 in 10.0 mi SSE 9.2 mph - N/A   Clear
8:15 PM 61.2 °F - 30.6 °F 32% 29.83 in 10.0 mi SSE 9.2 mph - N/A   Clear
8:35 PM 60.6 °F - 30.6 °F 32% 29.83 in 10.0 mi SSE 8.1 mph - N/A   Clear
9:15 PM 59.0 °F - 30.2 °F 34% 29.84 in 10.0 mi SSE 9.2 mph - N/A   Clear
9:35 PM 59.9 °F - 30.6 °F 33% 29.84 in 10.0 mi SSE 10.4 mph - N/A   Clear
9:55 PM 58.6 °F - 31.3 °F 36% 29.85 in 10.0 mi SSE 9.2 mph - N/A   Clear
10:15 PM 58.1 °F - 32.2 °F 38% 29.85 in 10.0 mi SSE 9.2 mph - N/A   Clear
10:35 PM 59.7 °F - 32.9 °F 36% 29.85 in 10.0 mi SSE 9.2 mph - N/A   Clear
10:55 PM 60.3 °F - 32.9 °F 36% 29.85 in 10.0 mi SSE 9.2 mph - N/A   Clear
11:15 PM 59.4 °F - 33.1 °F 37% 29.85 in 10.0 mi SSE 8.1 mph - N/A   Clear
11:35 PM 59.5 °F - 32.9 °F 37% 29.85 in 10.0 mi SSE 8.1 mph - N/A   Clear
11:55 PM 59.4 °F - 32.5 °F 36% 29.85 in 10.0 mi SE 6.9 mph - N/A   Clear